Location: Bois de la Silve
(44.4667°N, 6.7833°E)
Time: 04:14:31
(UTC+00:00)

Aureole 1 Rocket - Pass Details

Date: 14 July 2020
Orbit: 377 x 1380 km, 73.9° (Epoch: 06 August)

Event Time Altitude Azimuth Distance (km) Brightness Sun altitude
Exits shadow 02:25:54 19° 242° (WSW) 1,620 4.6 -13.7°
Maximum altitude 02:28:56 39° 302° (WNW) 1,152 4.3 -13.3°
Drops below altitude 10° 02:34:35 10° 10° (N) 2,675 7.3 -12.7°
Sets 02:37:41 0° 18° (NNE) 3,805 8.4 -12.3°
